Location: Beneden-Haastrecht
(52.0012°N, 4.7557°E)
Time: 12:16:31
(UTC+00:00)

IRS-1C Rocket - Pass Details

Date: 24 October 2020
Orbit: 801 x 805 km, 99.0° (Epoch: 24 November)

Event Time Altitude Azimuth Distance (km) Brightness Sun altitude
Rises 17:19:05 0° 153° (SSE) 3,305 7.1 -8.6°
Reaches altitude 10° 17:21:25 10° 151° (SSE) 2,379 6.3 -8.9°
Maximum altitude 17:26:38 68° 70° (ENE) 868 4.1 -9.7°
Drops below altitude 10° 17:31:54 10° 348° (NNW) 2,398 6.6 -10.5°
Sets 17:34:15 0° 346° (NNW) 3,334 7.4 -10.9°
